Home > Weather > Medellin > Past weeks

Flag for Colombia Past Weather in Medellin, Colombia — Yesterday and Last 2 Weeks

Now
59 °F

Drizzle. Mostly cloudy.


Feels Like: 59 °F
Forecast: 63 / 88 °F
Wind: No wind

Location: Rionegro / J. M. Cordova

Current Time: Jul 30, 2016 at 10:39:32 PM

Latest Report: Jul 30, 2016 at 10:00 PM


Visibility: 5 mi

Pressure: 30.31 "Hg (25.43 "Hg at 1479m altitude)

Humidity: 88%

Dew Point: 55 °F

Location of MedellinLocation

Past Weather in Medellin — Graph

°F

Medellin Temperature Yesterday

Maximum temperature yesterday: 72 °F (at 1:00 PM)
Minimum temperature yesterday: 57 °F (at 4:00 AM)
Average temperature yesterday: 64 °F

High & Low Weather Summary for the Past Weeks

 TemperatureHumidityPressure
High73 °F (Jul 17, 12:00 PM)100% (Jul 16, 1:00 AM)30.38 "Hg (Jul 16, 1:00 AM)
Low52 °F (Jul 17, 5:00 AM)38% (Jul 21, 3:00 PM)30.18 "Hg (Jul 26, 4:00 PM)
Average63 °F77%30.29 "Hg
* Reported Jul 15 9:00 PM — Jul 30 9:00 PM, Medellin, Weather by CustomWeather, © 2016

Note: Actual official high and low records may vary slightly from our data, if they occured in-between our weather recording intervals... More about our weather records

Advertising

Medellin Weather History for the Previous 24 Hours

Scroll right to see more
 ConditionsComfort  
Time TempWeatherWind HumidityBarometerVisibility
9:00 PM
Sat, Jul 30
59 °FPassing clouds.5 mph88%30.28 "HgN/A
8:00 PM61 °FPartly cloudy.No wind83%30.28 "HgN/A
7:00 PM63 °FPassing clouds.5 mph77%30.25 "HgN/A
6:00 PM66 °FScattered showers. Scattered clouds.9 mph64%30.21 "Hg6 mi
5:00 PM70 °FScattered clouds.9 mph53%30.18 "HgN/A
4:00 PM73 °FScattered clouds.12 mph41%30.18 "HgN/A
3:00 PM73 °FScattered clouds.12 mph41%30.20 "HgN/A
2:00 PM73 °FScattered clouds.12 mph38%30.22 "HgN/A
1:00 PM72 °FHail. Scattered clouds.12 mph47%30.24 "HgN/A
12:00 PM70 °FScattered clouds.7 mph57%30.28 "HgN/A
11:00 AM68 °FScattered clouds.5 mph60%30.29 "HgN/A
10:00 AM64 °FBroken clouds.2 mph73%30.30 "HgN/A
9:00 AM63 °FBroken clouds.No wind77%30.32 "Hg6 mi
8:00 AM61 °FFog.No wind83%30.29 "HgN/A
7:00 AM57 °FFog.No wind88%30.27 "HgN/A
6:00 AM55 °FRain. Broken clouds.No wind100%30.25 "Hg4 mi
5:00 AM55 °FRain. Partly cloudy.No wind100%30.25 "Hg5 mi
4:00 AM55 °FPartly cloudy.No wind100%30.25 "Hg4 mi
3:00 AM55 °FPartly cloudy.No wind94%30.24 "Hg4 mi
2:00 AM57 °FPartly cloudy.No wind94%30.25 "Hg5 mi
1:00 AM57 °FPartly cloudy.No wind94%30.29 "Hg5 mi
12:00 AM59 °FPassing clouds.No wind88%30.31 "HgN/A
11:00 PM
Fri, Jul 29
59 °FPassing clouds.No wind94%30.32 "HgN/A
10:00 PM61 °FPassing clouds.No wind88%30.30 "HgN/A
Weather by CustomWeather, © 2016

See weather overviewHow to use our weather pages